Regional Weather Roundup
Issued by NWS

Home | Current Version | Previous Version | Text Only | Print | Product List | Glossary On
Versions: 1 2 3 4 5 6 7 8 9 10 11 12 13 14 15 16 17 18 19 20 21 22 23 24 25 26 27 28 29 30 31 32 33 34 35 36 37 38 39 40 41 42 43 44 45 46 47 48 49 50
000
ASUS44 KBMX 260610
RWRAL

ALABAMA REGIONAL WEATHER ROUNDUP
NATIONAL WEATHER SERVICE BIRMINGHAM AL
1200 AM CST WED NOV 26 2014

NOTE: "FAIR" INDICATES FEW OR NO CLOUDS BELOW 12,000 FEET
WITH NO SIGNIFICANT WEATHER AND/OR OBSTRUCTIONS TO VISIBILITY.

THE REMARK "TC" DENOTES TEMPERATURE IN DEGREES CELSIUS.

ALZ001>011-014-016>018-020-260700-
NORTH ALABAMA

CITY           SKY/WX    TMP DP  RH WIND       PRES   REMARKS
MUSCLE SHOALS  CLEAR     39  27  62 CALM      30.16F
6HR MIN TEMP:  38; 6HR MAX TEMP:  47;

HUNTSVILLE     MOCLDY    42  29  59 NW3       30.12F
6HR MIN TEMP:  42; 6HR MAX TEMP:  49;

DECATUR        NOT AVBL
HALEYVILLE     FAIR      34  28  79 CALM      30.15F
6HR MIN TEMP:  34; 6HR MAX TEMP:  43;

GADSDEN        CLOUDY    46  28  49 NW7       30.08S
6HR MIN TEMP:  46; 6HR MAX TEMP:  52;

$$

ALZ012-013-022-023-030>036-040>044-260700-
WEST CENTRAL ALABAMA

CITY           SKY/WX    TMP DP  RH WIND       PRES   REMARKS
TUSCALOOSA     MOCLDY    42  31  64 NW5       30.14F
6HR MIN TEMP:  42; 6HR MAX TEMP:  50;

$$

ALZ015-024>027-033>036-040>044-260700-
CENTRAL ALABAMA

CITY           SKY/WX    TMP DP  RH WIND       PRES   REMARKS
BIRMINGHAM     CLOUDY    45  28  51 N7        30.11F
6HR MIN TEMP:  45; 6HR MAX TEMP:  52;

MONTGOMERY     CLOUDY    49  32  52 NW10      30.08F
6HR MIN TEMP:  49; 6HR MAX TEMP:  57;

SHELBY CO ARPT CLOUDY    47  30  51 N9        30.10S
6HR MIN TEMP:  47; 6HR MAX TEMP:  54;

MAXWELL AFB    CLOUDY    49  33  55 NW9       30.07F
6HR MIN TEMP:  49; 6HR MAX TEMP:  56;

GREENVILLE     FAIR      48  31  51 NW10      30.08F
6HR MIN TEMP:  48; 6HR MAX TEMP:  55;

$$

ALZ019-021-028-029-037-038-045>048-260700-
EAST CENTRAL ALABAMA

CITY           SKY/WX    TMP DP  RH WIND       PRES   REMARKS
ANNISTON       CLOUDY    48  30  49 SW8       30.05F
6HR MIN TEMP:  48; 6HR MAX TEMP:  56;

ALEXANDER CITY CLOUDY    52  29  42 NW8       30.06F
6HR MIN TEMP:  52; 6HR MAX TEMP:  57;

AUBURN         CLOUDY    46  34  61 NW8       30.06F
6HR MIN TEMP:  46; 6HR MAX TEMP:  50;

$$

ALZ051>064-260700-
SOUTHWEST ALABAMA

CITY           SKY/WX    TMP DP  RH WIND       PRES   REMARKS
MOBILE         CLOUDY    47  30  51 NW8       30.16S
6HR MIN TEMP:  47; 6HR MAX TEMP:  53;

BROOKLEY FIELD CLOUDY    50  31  48 NW15      30.17R
6HR MIN TEMP:  50; 6HR MAX TEMP:  56;

EVERGREEN      CLOUDY    49  31  49 NW7       30.11F
6HR MIN TEMP:  49; 6HR MAX TEMP:  55;

$$

ALZ049-050-065>069-260700-
SOUTHEAST ALABAMA

CITY           SKY/WX    TMP DP  RH WIND       PRES   REMARKS
DOTHAN         LGT RAIN  49  47  93 CALM      30.08F
6HR MIN TEMP:  48; 6HR MAX TEMP:  49; 6HR PCP:  0.07;

OZARK          CLOUDY    49  44  83 N2        30.03F
6HR MIN TEMP:  49; 6HR MAX TEMP:  50; 6HR PCP:  0.08;

TROY           CLOUDY    50  34  54 NW9       30.04F
6HR MIN TEMP:  49; 6HR MAX TEMP:  52; 6HR PCP: TRACE;

EUFAULA        LGT RAIN  49  49 100 CALM      30.01F
6HR MIN TEMP:  49; 6HR MAX TEMP:  51; 6HR PCP:  0.16;

$$


USA.gov is the U.S. government's official web portal to all federal, state and local government web resources and services.